Temperature
14 14 14 14 14 14 14 14 15 15 15 15 15 15 16 16 16 16 16 17 17 17 17 17 17 17 17 17 18 18 18 17 18 18 18 17 17 17 18 18 18 18 17
14 14 14 14 14 14 14 14 14 14 15 15 15 15 15 16 16 16 16 16 17 17 17 17 17 17 17 17 18 18 17 17 18 17 17 17 17 17 17 17 18 18 17
14 14 14 14 14 14 14 14 14 14 14 15 15 15 15 15 15 16 16 16 16 17 17 17 17 17 17 17 17 17 17 17 18 17 17 17 17 17 17 17 17 17 17
14 13 13 13 13 13 13 14 14 14 14 15 15 15 15 15 15 15 16 16 16 16 17 17 17 17 17 17 17 17 17 17 17 17 17 17 17 17 17 17 17 17 17
13 13 13 13 13 13 13 13 14 14 14 14 15 15 15 15 15 15 16 16 16 16 16 17 17 17 17 17 17 17 17 17 17 17 17 17 17 17 17 17 17 17 17
13 13 13 13 13 13 13 13 13 13 14 14 15 15 15 15 15 15 15 16 16 16 16 16 16 17 17 17 17 17 17 17 17 17 17 17 17 17 17 17 17 17 17
13 13 13 13 13 13 13 13 13 13 14 14 14 15 15 15 15 15 15 15 16 16 16 16 16 16 16 17 17 17 17 17 17 17 17 17 17 17 17 17 17 17 17
13 13 13 13 13 13 13 13 13 13 13 14 14 15 16 16 15 15 15 15 16 16 16 16 16 16 16 16 17 17 17 17 17 17 17 17 17 17 17 17 17 17 17
13 13 13 13 13 13 13 13 13 13 13 14 14 14 15 16 16 15 15 15 15 15 16 16 16 16 16 16 16 17 17 17 17 17 17 17 17 17 17 17 17 17 17
13 13 13 13 13 13 13 13 13 13 13 13 14 14 14 14 15 15 15 15 15 15 15 15 16 16 16 16 16 16 17 17 17 17 17 17 17 17 17 17 17 17 17
13 13 13 13 13 13 13 13 13 13 13 13 13 14 14 14 15 15 15 15 15 15 15 15 15 15 15 15 16 16 16 17 17 17 17 17 17 17 17 17 17 17 17
13 13 13 13 13 13 13 13 13 13 13 13 13 13 14 14 14 15 15 15 15 15 15 15 15 15 15 15 15 16 16 16 16 16 17 17 17 17 17 17 17 17 17
14 13 13 13 13 13 13 13 13 13 13 13 13 13 13 14 14 14 14 15 14 14 14 14 15 15 15 15 15 16 16 16 16 16 16 16 16 16 16 16 16 16 16
14 13 13 13 13 13 13 13 13 13 13 13 13 13 13 13 13 14 14 14 15 15 15 14 14 15 15 15 15 15 15 16 16 16 16 16 16 16 16 16 16 16 16
14 13 13 13 13 13 13 13 13 13 13 13 13 13 13 13 13 13 13 14 14 15 15 14 14 14 14 14 15 15 15 15 16 16 16 16 16 16 16 16 16 16 16
14 14 14 13 13 13 13 13 13 13 13 13 13 13 13 13 13 13 13 13 13 14 14 14 14 14 14 14 14 14 14 15 15 15 15 15 15 16 16 16 16 16 16
14 14 14 14 14 13 13 13 13 13 13 13 13 13 13 13 13 13 13 13 13 13 14 14 14 14 14 14 14 14 14 14 14 15 15 15 15 15 15 15 15 15 16
14 14 14 14 14 13 13 13 13 13 13 13 13 13 13 13 13 13 13 13 13 13 13 13 13 13 13 13 13 14 14 14 14 14 15 15 15 15 15 15 15 15 15
14 14 14 14 14 13 13 13 13 13 13 13 13 13 13 13 13 13 13 13 13 13 13 13 13 13 13 13 13 13 13 13 13 14 14 14 14 14 14 14 15 15 15
14 14 14 14 14 13 13 13 13 13 13 13 13 13 13 13 13 13 13 13 13 13 13 13 13 13 13 13 13 13 13 13 13 13 13 14 14 14 14 14 14 14 14
14 14 14 14 14 14 13 13 13 13 13 13 13 13 13 13 13 13 13 13 12 13 13 13 13 13 13 12 13 12 13 13 13 13 13 13 13 13 13 14 14 14 14
14 14 14 14 14 14 14 14 13 13 13 13 13 13 13 13 13 13 13 13 13 12 13 13 13 13 13 12 12 12 12 12 12 12 12 12 12 13 13 13 13 14 14
14 14 14 14 14 14 14 14 14 13 13 13 13 13 13 13 13 12 12 13 12 12 12 12 12 12 12 12 12 12 12 12 12 12 12 12 12 12 12 13 13 13 13
14 14 14 14 13 14 14 14 13 13 13 13 13 13 13 12 12 12 12 12 12 12 12 12 12 12 12 12 12 12 12 12 12 12 12 12 12 12 12 12 13 13 13
13 13 14 14 13 13 14 13 13 13 12 12 13 13 13 12 12 12 12 12 12 12 12 12 12 12 12 12 12 12 11 11 11 11 12 11 11 12 12 12 12 12 12
13 13 13 13 13 13 13 13 13 12 12 12 12 12 13 13 13 12 12 11 11 12 11 12 12 12 12 12 12 11 11 11 11 11 11 11 11 11 11 11 11 11 11
Wind_Speed
4 4 4 4 5 5 5 5 5 5 5 5 5 6 5 6 6 5 2 2 2 3 4 4 6 8 7 7 7 6 7 7 7 7 7 7 7 7 9 9 10 10 10
4 4 5 4 5 5 6 6 5 5 5 5 5 5 6 5 5 5 4 3 3 2 2 3 5 7 7 7 8 7 7 8 8 8 8 8 7 8 9 9 10 10 10
4 5 5 4 5 5 6 5 5 5 5 4 5 5 5 5 5 5 5 4 4 5 3 2 4 5 6 7 8 8 8 8 9 9 9 9 9 9 9 9 10 10 10
5 5 4 5 5 5 5 5 5 4 4 4 4 4 4 3 5 5 5 5 4 4 5 4 3 4 5 6 7 8 8 9 10 10 10 10 10 10 9 9 10 10 10
5 4 4 5 6 5 5 5 4 5 4 4 3 3 3 3 3 4 5 4 4 4 4 6 5 5 5 6 7 8 8 8 10 10 11 10 11 11 10 10 10 10 10
5 5 4 5 5 4 4 4 5 4 4 3 4 3 2 2 3 3 4 3 3 4 3 4 5 6 6 6 6 7 9 9 10 10 11 12 12 11 11 11 11 10 10
4 4 5 4 4 4 5 5 5 4 3 3 3 3 2 2 2 1 2 3 3 2 2 3 4 4 6 8 7 6 8 8 10 11 11 12 13 12 12 12 12 11 10
4 4 5 4 4 4 4 5 4 4 3 2 3 3 2 3 2 1 1 2 2 2 2 2 3 4 4 5 7 7 6 6 8 11 12 13 13 13 13 12 12 12 12
4 4 5 4 4 4 4 4 4 4 4 2 2 2 2 1 1 2 1 1 1 1 1 1 2 2 3 4 5 8 7 6 7 9 11 12 14 14 14 13 13 13 13
3 4 4 4 4 4 4 4 4 4 4 3 1 2 3 3 2 1 2 1 1 1 0 1 1 1 2 3 3 4 6 6 7 9 10 10 12 13 14 14 14 14 14
3 3 4 4 4 3 4 4 4 4 3 3 3 2 2 2 3 2 1 1 1 1 0 1 1 1 2 2 3 4 5 5 6 8 9 9 10 11 13 14 14 15 14
2 2 3 3 3 3 3 4 4 3 3 3 2 2 2 2 2 2 2 2 1 1 1 0 1 1 1 2 2 3 4 5 5 6 8 9 9 10 10 11 13 14 14
2 2 3 3 3 3 3 3 3 3 3 3 2 2 2 3 3 3 2 1 1 1 1 1 1 1 1 2 2 2 5 4 5 6 6 7 8 9 9 10 11 12 12
3 3 3 3 3 3 3 3 3 3 3 2 2 3 2 2 3 2 2 2 2 1 2 1 1 0 1 1 2 2 4 5 4 4 5 6 7 9 9 9 10 11 12
4 4 4 4 3 3 3 3 2 3 2 2 3 3 3 2 2 2 2 2 2 2 2 1 1 0 0 0 1 2 2 4 3 4 5 5 6 8 9 9 9 10 10
5 5 5 5 4 4 3 3 3 3 3 2 2 3 3 3 2 2 3 2 3 3 2 0 0 1 1 1 0 1 1 4 4 4 4 5 5 6 7 8 8 8 8
6 6 6 6 5 5 4 4 4 3 4 3 3 3 3 3 3 3 2 3 3 3 3 1 1 1 1 1 0 0 1 2 3 4 4 4 5 5 5 5 6 7 7
7 7 6 6 6 6 5 5 5 5 5 4 4 4 3 2 3 3 3 3 3 3 3 2 1 1 1 0 0 1 1 1 1 5 4 3 3 4 4 4 4 5 6
8 7 7 7 7 6 6 6 6 6 6 5 5 5 4 4 4 3 4 4 3 3 3 3 2 1 1 0 0 1 1 1 1 3 5 5 4 4 4 4 4 4 4
8 8 8 8 8 7 8 7 7 7 7 6 6 5 5 5 5 5 4 4 4 4 3 3 3 2 1 1 1 1 1 2 2 1 2 3 5 6 5 4 3 3 3
8 9 8 8 8 8 7 8 8 8 8 7 7 6 6 4 4 4 4 4 4 4 4 4 3 2 2 2 2 2 2 2 2 1 2 3 3 3 4 5 4 3 3
8 8 9 9 9 8 5 6 9 9 9 9 8 7 6 6 6 6 4 4 4 4 4 4 4 4 3 2 2 2 2 3 2 1 2 2 2 2 2 2 4 3 2
8 9 9 10 10 9 7 8 10 10 10 9 9 8 6 5 6 6 7 8 6 5 5 5 5 4 4 3 3 4 3 3 2 0 2 2 2 2 1 3 5 4 3
8 9 10 10 10 10 8 9 10 12 11 10 10 9 8 8 7 7 7 6 6 5 5 6 4 4 3 3 3 3 3 3 2 1 2 2 1 1 1 3 6 5 4
9 9 10 10 11 11 10 10 11 9 9 10 9 9 9 8 6 6 8 7 6 5 3 2 1 2 3 2 2 3 3 3 3 2 1 2 1 2 2 2 5 6 5
9 9 10 10 11 12 9 10 13 9 10 9 8 8 7 7 6 8 9 8 8 7 6 6 5 5 4 3 2 3 3 4 3 2 1 2 2 2 2 2 2 2 3
Wind_Direction
331 337 329 332 325 327 315 305 297 304 292 285 275 268 258 245 245 241 218 158 272 279 257 233 214 204 199 196 188 188 185 178 171 170 165 155 148 149 143 136 133 128 125
331 327 325 329 328 327 328 312 302 299 284 283 278 272 267 252 245 235 237 203 195 233 254 230 215 205 198 199 193 190 188 183 178 173 168 163 161 157 152 146 142 138 135
328 327 326 327 331 325 317 313 311 297 286 277 267 266 259 253 252 239 231 232 207 183 182 215 214 203 197 199 197 194 195 190 185 180 176 174 170 164 161 157 152 148 146
334 330 327 328 327 321 317 315 309 299 288 285 279 265 250 238 244 241 231 221 226 216 172 157 196 196 200 203 199 195 201 196 191 187 184 181 177 173 170 167 162 159 156
334 330 327 325 324 322 321 319 320 308 302 299 282 260 258 248 244 239 233 225 212 216 201 161 176 187 196 204 203 198 200 198 195 190 185 183 182 179 177 173 170 168 165
336 331 321 326 329 326 327 323 319 309 300 288 278 265 252 249 237 238 241 227 222 215 216 202 191 179 178 188 198 201 203 198 198 194 192 188 183 182 182 180 179 176 174
329 330 323 331 329 331 330 328 322 311 302 302 283 256 225 225 237 223 243 238 207 202 210 207 207 202 179 176 182 191 204 201 203 200 198 194 188 186 187 187 186 185 184
325 324 325 320 323 321 326 330 327 317 313 302 296 280 240 196 206 207 220 231 217 179 212 218 205 204 212 193 162 176 193 200 209 208 205 200 193 191 192 195 193 191 192
319 322 324 320 323 322 333 330 326 322 316 310 307 297 285 261 202 187 198 214 185 175 210 241 229 206 203 206 181 175 188 202 209 207 207 203 198 196 196 199 199 197 197
312 315 314 315 320 326 328 327 336 319 307 306 299 289 301 318 271 206 186 195 186 178 261 262 259 227 221 212 180 157 180 204 209 203 204 207 203 201 201 202 201 201 201
301 306 308 309 315 321 324 327 330 323 314 311 310 298 290 281 274 275 228 204 190 174 140 281 265 264 247 225 206 161 175 201 205 203 204 211 208 205 204 205 206 207 207
291 298 297 300 307 316 319 322 320 319 319 319 310 304 305 302 305 284 257 227 208 163 161 245 270 261 258 229 202 135 177 198 204 205 207 210 210 209 208 207 209 210 211
292 303 292 295 304 309 312 312 307 310 304 304 307 309 312 311 311 300 279 257 236 220 191 188 187 256 239 228 169 161 175 187 202 205 207 207 205 208 211 213 213 211 212
294 297 288 290 294 294 292 292 297 302 303 295 298 300 297 304 307 309 300 289 258 226 206 185 171 247 265 236 88 218 174 162 184 200 204 204 205 206 206 214 217 215 216
279 278 275 275 281 278 279 279 290 297 291 293 295 290 285 287 290 296 295 284 277 263 223 176 206 306 241 142 48 221 187 139 180 211 212 208 208 209 208 212 217 217 218
268 265 270 270 271 266 260 266 276 292 281 270 277 289 282 272 278 281 278 272 274 278 265 216 247 295 314 254 178 247 160 141 182 199 208 211 211 206 208 210 214 216 216
258 259 263 269 269 262 255 244 258 265 272 274 261 266 267 269 269 266 259 257 258 261 253 254 264 266 248 244 210 242 217 215 171 157 184 199 208 207 205 208 211 214 214
259 260 260 262 263 260 257 251 250 253 259 269 272 268 270 253 246 254 248 245 245 250 251 242 244 282 307 338 342 264 222 203 180 129 145 161 179 188 193 197 199 201 205
261 258 257 256 256 257 255 251 249 250 252 256 260 262 265 263 248 235 238 239 235 233 235 232 235 264 271 269 299 259 215 212 209 150 157 160 157 164 173 183 187 191 199
264 262 259 256 255 254 252 249 249 250 252 253 253 256 259 259 258 247 236 235 233 227 221 228 227 227 240 245 235 246 216 197 214 201 165 165 159 165 170 179 184 182 188
263 263 261 256 254 253 252 252 250 249 249 250 247 247 248 258 293 279 263 242 226 223 218 220 220 216 218 221 227 242 237 222 198 230 221 198 183 191 180 178 184 183 192
264 263 259 258 254 249 234 243 254 252 249 247 246 243 236 223 220 222 242 268 281 244 228 222 225 219 221 224 229 235 231 229 215 201 249 217 208 203 184 155 118 136 168
261 261 259 257 255 247 221 227 238 251 251 250 247 242 237 228 221 223 206 206 222 245 260 254 241 235 232 223 224 228 230 242 249 273 271 225 204 197 150 99 107 125 130
263 259 260 258 256 251 228 228 230 241 246 245 242 240 236 231 225 227 223 216 215 210 218 231 241 248 256 252 241 243 236 228 227 218 275 247 226 221 187 130 111 116 116
270 262 260 259 256 249 226 224 230 241 240 239 237 237 238 233 196 206 224 217 209 202 167 156 45 67 59 37 289 226 211 217 223 200 239 254 258 264 236 189 137 130 129
271 270 263 260 258 257 232 221 229 238 238 235 231 229 226 234 195 196 217 217 216 209 199 183 185 186 187 163 208 229 228 235 235 211 178 256 254 269 248 201 191 178 155
Height
1526 1524 1523 1521 1521 1519 1518 1517 1516 1516 1515 1515 1515 1515 1515 1515 1516 1517 1517 1517 1518 1519 1521 1522 1523 1524 1525 1527 1528 1529 1530 1531 1533 1534 1535 1536 1537 1538 1539 1540 1541 1542 1543
1525 1524 1523 1521 1520 1518 1517 1516 1515 1514 1514 1514 1513 1513 1513 1514 1514 1515 1516 1516 1517 1518 1519 1520 1522 1523 1524 1526 1527 1528 1530 1531 1533 1534 1535 1536 1538 1539 1540 1541 1542 1543 1544
1524 1523 1522 1521 1519 1517 1516 1515 1514 1513 1513 1512 1512 1512 1512 1512 1512 1514 1514 1515 1516 1517 1518 1519 1520 1522 1523 1524 1526 1527 1529 1531 1532 1534 1535 1537 1538 1539 1541 1542 1543 1545 1546
1524 1522 1521 1520 1518 1516 1515 1514 1513 1512 1512 1511 1511 1511 1511 1511 1511 1512 1513 1514 1515 1517 1517 1518 1519 1521 1522 1523 1525 1526 1528 1530 1532 1533 1535 1536 1538 1540 1541 1542 1544 1545 1546
1523 1522 1520 1518 1517 1516 1514 1513 1512 1511 1511 1510 1510 1510 1510 1510 1510 1511 1512 1513 1514 1515 1516 1517 1518 1519 1520 1522 1523 1525 1527 1529 1531 1532 1534 1536 1537 1539 1541 1542 1544 1545 1547
1522 1521 1520 1518 1516 1515 1513 1512 1511 1510 1509 1509 1509 1509 1509 1509 1509 1510 1510 1512 1512 1514 1515 1516 1517 1518 1519 1520 1522 1524 1526 1527 1529 1531 1533 1535 1537 1538 1540 1542 1544 1545 1547
1521 1520 1519 1517 1515 1514 1513 1512 1510 1510 1509 1509 1509 1509 1508 1508 1509 1509 1509 1510 1511 1512 1513 1514 1516 1517 1518 1519 1520 1522 1524 1526 1527 1530 1532 1534 1536 1538 1539 1541 1543 1544 1546
1521 1520 1518 1517 1515 1513 1512 1511 1509 1509 1508 1508 1508 1508 1508 1509 1507 1508 1508 1509 1510 1511 1511 1513 1514 1515 1517 1518 1519 1520 1522 1524 1526 1528 1530 1532 1534 1536 1538 1540 1542 1544 1545
1520 1519 1518 1516 1515 1514 1512 1511 1509 1508 1508 1508 1508 1508 1508 1507 1507 1508 1507 1508 1508 1509 1510 1512 1513 1514 1515 1516 1518 1519 1520 1522 1524 1526 1528 1531 1533 1535 1537 1538 1540 1542 1544
1520 1518 1517 1516 1515 1513 1512 1511 1510 1508 1507 1507 1507 1507 1508 1507 1507 1507 1507 1507 1508 1508 1509 1510 1511 1513 1514 1515 1516 1517 1518 1520 1522 1524 1526 1528 1531 1533 1535 1537 1539 1541 1543
1519 1518 1516 1515 1514 1513 1512 1510 1509 1508 1507 1507 1507 1507 1507 1506 1506 1506 1506 1507 1507 1507 1508 1509 1510 1511 1512 1513 1514 1515 1516 1518 1520 1522 1524 1526 1528 1530 1533 1535 1537 1539 1541
1519 1518 1516 1515 1514 1512 1511 1510 1509 1508 1507 1506 1506 1506 1506 1506 1506 1506 1506 1506 1506 1507 1507 1507 1508 1509 1510 1511 1512 1513 1515 1516 1518 1520 1522 1523 1525 1528 1530 1532 1534 1536 1538
1519 1517 1516 1514 1513 1512 1511 1509 1508 1507 1507 1506 1505 1505 1505 1505 1505 1505 1505 1505 1505 1506 1506 1507 1507 1507 1508 1510 1510 1511 1513 1514 1516 1517 1519 1521 1523 1525 1527 1530 1532 1533 1535
1518 1516 1515 1514 1512 1511 1510 1509 1508 1507 1506 1506 1505 1504 1504 1504 1504 1504 1505 1505 1505 1505 1505 1506 1506 1506 1507 1508 1508 1509 1510 1512 1513 1515 1516 1518 1520 1522 1525 1526 1528 1530 1532
1516 1515 1514 1513 1512 1510 1509 1509 1508 1507 1505 1505 1504 1504 1503 1503 1503 1503 1503 1504 1505 1504 1505 1505 1505 1505 1505 1506 1506 1508 1509 1509 1511 1512 1514 1515 1517 1519 1521 1523 1525 1527 1529
1514 1513 1513 1512 1511 1510 1509 1508 1507 1506 1505 1504 1503 1502 1502 1503 1502 1502 1502 1503 1503 1504 1503 1503 1503 1503 1503 1504 1505 1506 1506 1507 1508 1510 1511 1512 1514 1516 1518 1519 1521 1523 1525
1512 1511 1511 1510 1509 1509 1508 1507 1506 1505 1504 1503 1502 1502 1501 1500 1500 1501 1501 1501 1501 1502 1502 1502 1502 1502 1502 1503 1503 1504 1504 1506 1507 1507 1508 1510 1511 1512 1514 1516 1517 1519 1521
1510 1509 1509 1508 1508 1507 1506 1505 1504 1503 1503 1502 1501 1501 1500 1499 1499 1499 1499 1499 1500 1500 1501 1501 1501 1501 1501 1501 1501 1502 1503 1504 1504 1505 1506 1507 1508 1509 1510 1512 1514 1515 1517
1507 1506 1506 1505 1505 1504 1504 1503 1502 1502 1501 1500 1500 1499 1499 1498 1498 1497 1497 1498 1498 1498 1498 1499 1499 1499 1499 1499 1500 1500 1501 1501 1502 1503 1503 1504 1505 1506 1507 1508 1510 1511 1512
1504 1503 1503 1502 1502 1501 1500 1500 1500 1499 1499 1498 1498 1497 1497 1496 1496 1496 1496 1496 1496 1496 1496 1497 1497 1497 1497 1498 1498 1499 1500 1500 1500 1501 1501 1501 1502 1502 1503 1505 1506 1507 1508
1500 1499 1499 1498 1498 1497 1497 1497 1496 1496 1496 1495 1495 1494 1494 1493 1493 1493 1493 1494 1494 1494 1494 1495 1495 1495 1496 1496 1497 1497 1498 1498 1498 1498 1499 1499 1500 1500 1501 1501 1502 1503 1504
1496 1496 1495 1494 1493 1493 1492 1492 1492 1492 1492 1492 1492 1491 1491 1490 1490 1490 1490 1490 1491 1492 1492 1492 1493 1493 1494 1494 1494 1495 1495 1496 1497 1497 1497 1497 1497 1498 1498 1498 1498 1499 1500
1492 1491 1490 1489 1489 1489 1488 1488 1488 1488 1488 1488 1488 1488 1487 1487 1487 1487 1487 1487 1487 1488 1489 1490 1491 1491 1491 1492 1492 1493 1493 1494 1494 1494 1494 1495 1495 1495 1495 1495 1495 1496 1496
1488 1486 1485 1485 1484 1483 1483 1483 1483 1483 1483 1483 1483 1483 1483 1483 1483 1484 1484 1485 1485 1485 1486 1487 1488 1488 1489 1489 1489 1490 1490 1491 1491 1491 1491 1492 1492 1493 1492 1492 1492 1492 1493
1483 1481 1480 1479 1478 1477 1477 1477 1478 1478 1478 1478 1478 1478 1479 1479 1479 1479 1480 1481 1482 1482 1483 1483 1484 1484 1485 1485 1486 1487 1488 1489 1489 1489 1489 1490 1490 1490 1490 1489 1489 1489 1489
1478 1476 1475 1474 1473 1472 1472 1471 1472 1472 1473 1473 1473 1473 1473 1474 1474 1475 1476 1477 1478 1479 1479 1480 1480 1481 1481 1482 1483 1484 1485 1486 1487 1487 1486 1487 1487 1487 1488 1487 1487 1486 1486